SCP
1 2 2 1 1 1 1 1 1 1 1 1 1 1 0 0 0 0 0 0 0 0 0 0 0 0 0 0 0 0 0 0 -0 -0 -0 0 0 0 0 0 0 0 0
1 1 2 1 1 1 1 1 1 1 1 1 1 1 1 0 0 0 0 0 0 0 0 0 1 0 0 0 0 0 0 0 -0 -0 -0 0 0 0 0 0 0 0 0
0 0 1 1 1 1 1 1 1 2 2 1 1 1 1 0 0 0 0 0 0 0 0 0 0 1 1 0 1 0 0 0 0 -0 -0 0 0 0 0 0 0 0 0
0 0 0 0 1 2 2 2 2 2 2 2 1 1 1 1 1 0 0 0 0 0 0 0 0 0 0 0 1 0 0 0 0 0 -0 -0 0 0 0 0 0 0 0
0 0 0 0 0 0 2 1 2 2 1 2 2 1 1 1 1 0 0 0 0 0 0 0 0 0 0 0 1 0 0 0 0 0 0 -0 -0 0 0 0 0 0 0
0 0 0 0 0 0 0 1 1 1 2 2 2 2 0 -0 0 0 0 0 0 0 0 0 0 0 0 0 0 0 0 0 0 0 0 0 -0 -0 0 0 0 0 0
0 0 0 0 0 0 0 0 0 0 0 0 0 0 0 0 0 0 0 0 0 0 0 0 0 0 0 0 0 0 0 0 0 0 0 0 -0 0 0 0 0 0 0
0 0 0 0 0 0 0 0 0 1 0 0 0 0 0 0 0 0 0 0 0 0 0 0 0 0 0 0 0 0 0 0 0 0 0 0 -0 -0 -0 0 0 0 0
0 0 0 0 0 0 0 0 0 0 1 0 0 0 0 0 0 0 0 1 0 0 0 0 0 0 0 0 0 0 0 0 0 0 0 0 0 0 -0 -0 0 0 0
0 0 0 0 0 0 0 0 0 0 0 0 0 1 0 0 0 0 0 0 0 0 0 0 0 0 0 0 0 0 0 0 0 0 0 0 0 0 0 0 0 0 0
0 0 0 0 0 0 0 0 0 0 0 0 0 0 0 0 0 0 0 0 0 0 0 0 0 0 0 0 0 0 0 0 0 0 0 0 0 0 0 0 0 0 0
0 0 0 0 0 0 0 0 0 0 0 0 0 0 0 0 0 0 0 0 0 0 0 0 0 0 0 0 0 0 0 0 0 0 0 0 0 0 0 0 0 0 0
0 0 0 0 0 0 0 0 0 0 0 0 0 0 0 0 0 0 0 0 0 0 0 0 0 0 0 0 0 0 0 0 0 0 0 0 0 0 0 0 0 0 0
0 0 0 0 0 0 0 0 0 0 0 0 0 0 0 0 0 0 0 0 0 0 0 0 0 0 0 0 0 0 0 0 0 0 0 0 0 0 0 0 0 0 0
0 0 0 0 0 0 0 0 0 0 0 0 0 0 0 0 0 0 0 0 0 0 0 0 0 0 0 0 0 0 0 0 0 0 0 0 0 0 0 0 0 0 0
0 0 0 0 0 0 0 0 0 0 0 0 0 0 0 0 0 0 0 0 0 0 0 0 0 0 0 0 0 0 0 0 0 0 0 0 0 0 0 0 0 0 0
0 0 0 0 0 0 0 0 0 0 0 0 0 0 0 0 0 0 0 0 0 0 0 0 0 0 0 0 0 0 0 0 0 0 0 0 0 0 0 0 0 0 0
0 0 0 0 0 0 0 0 0 0 0 0 0 0 0 0 0 0 0 0 0 0 0 0 0 0 0 0 0 0 0 0 0 0 0 0 0 0 0 0 0 0 0
0 0 0 0 0 0 0 0 0 0 0 0 0 0 0 0 0 0 0 0 0 0 0 0 0 0 0 0 0 0 0 0 0 0 0 0 0 0 0 0 0 0 0
0 0 0 0 0 0 0 0 0 0 0 0 0 0 0 0 0 0 0 0 0 0 0 0 0 0 0 0 0 0 0 0 0 0 0 0 0 0 0 0 0 0 0
0 0 0 0 0 0 0 0 0 0 0 0 0 0 0 0 0 0 0 0 0 0 0 0 0 0 0 0 0 0 0 0 0 0 0 0 0 0 0 0 0 0 0
0 0 0 0 0 0 0 0 0 0 0 0 0 0 0 0 0 0 0 0 0 0 0 0 0 0 0 0 0 0 0 0 0 0 0 0 0 0 0 0 0 0 0
0 0 0 0 0 0 0 0 0 0 0 0 0 0 0 0 0 0 0 0 0 0 0 0 0 0 0 0 0 0 0 0 0 0 0 0 0 0 0 0 0 0 0
0 0 0 0 0 0 0 0 -0 -0 0 0 0 0 0 0 0 0 0 0 0 0 0 0 0 0 0 0 0 0 0 0 0 0 0 0 0 0 0 0 0 0 0
0 0 -0 0 0 0 0 0 0 0 -0 0 0 0 0 0 0 0 0 0 0 0 0 0 0 0 0 0 0 0 0 0 0 0 0 0 0 0 0 0 0 0 0
-0 -0 -0 0 0 0 -0 -0 0 0 0 0 -0 0 0 0 0 -0 0 0 0 0 0 0 0 0 0 0 0 0 0 0 0 0 0 0 0 0 0 0 0 0 0
Wind_Speed_500mb
48 49 54 56 59 61 62 60 59 59 59 58 56 53 51 48 47 47 47 47 46 45 45 44 41 41 37 37 38 42 45 48 47 50 49 49 53 52 51 49 47 42 37
46 48 51 54 57 60 60 61 64 63 63 62 62 60 57 54 53 51 51 51 52 51 51 49 47 47 45 44 42 44 47 48 48 52 56 54 57 56 55 54 51 45 41
53 54 54 57 58 58 55 60 66 64 65 61 64 64 62 61 60 58 56 56 56 55 55 56 54 52 51 49 46 45 46 50 52 51 57 57 58 60 60 59 55 49 43
53 63 60 66 66 68 63 66 65 66 65 55 59 64 65 63 66 66 63 62 62 60 56 58 58 54 52 48 46 45 46 49 53 52 56 57 64 66 66 63 60 54 46
46 50 63 62 49 44 48 70 70 71 72 68 56 58 64 63 65 62 69 69 65 60 54 51 54 56 55 52 49 47 47 50 53 56 60 61 66 69 70 67 65 59 51
44 47 45 43 45 52 62 58 65 72 75 61 79 103 76 67 60 67 65 69 62 57 55 53 52 58 59 58 56 52 50 51 54 57 61 68 73 77 73 71 70 64 56
44 48 54 54 52 50 48 46 52 59 64 79 78 72 89 101 81 67 58 62 69 59 53 55 57 58 62 64 62 60 57 55 55 57 60 69 72 75 76 72 73 69 61
39 43 47 53 59 59 55 51 50 44 48 44 73 75 62 86 115 110 91 77 69 58 59 66 64 62 67 69 69 68 64 58 56 58 59 66 65 82 85 81 79 74 66
33 39 45 48 52 57 59 57 56 53 53 52 50 49 19 28 52 84 92 115 91 78 84 87 61 63 69 74 75 74 68 65 59 62 59 62 60 72 90 85 83 78 71
30 32 38 41 46 50 52 55 55 59 57 60 61 64 66 54 29 27 61 88 110 109 88 94 89 76 72 74 83 78 68 65 65 64 65 66 67 70 92 87 84 81 76
29 31 30 34 37 39 42 48 51 54 61 65 66 68 69 70 75 62 47 61 77 88 88 96 98 80 86 83 84 81 74 70 69 68 70 72 70 72 98 94 91 86 82
29 30 30 28 29 32 34 37 41 47 53 65 73 68 74 69 72 72 71 63 72 73 95 85 104 103 90 91 92 84 74 71 72 73 72 73 77 75 94 98 93 91 89
34 32 32 29 29 30 33 34 39 46 47 55 70 75 81 82 80 75 85 80 74 82 81 89 106 110 91 95 102 94 81 76 75 76 76 75 79 83 85 96 97 97 96
38 36 36 34 33 32 34 36 42 48 50 51 57 71 78 82 84 84 89 83 74 79 81 94 100 106 98 84 104 100 89 80 78 78 78 76 78 84 90 97 96 100 109
39 37 37 36 34 33 32 38 41 41 46 49 54 53 72 79 88 87 89 92 90 64 78 102 102 108 100 85 83 100 91 85 77 80 79 79 77 78 97 110 112 116 116
37 36 36 37 37 35 36 36 41 40 44 46 50 51 61 76 79 82 86 91 93 97 80 72 85 91 83 84 75 80 87 84 77 78 79 76 77 79 79 99 112 120 119
37 38 40 39 39 40 37 36 37 37 42 40 45 47 57 67 74 78 75 78 87 92 87 77 73 61 64 62 62 63 76 83 79 76 73 70 64 60 79 76 96 115 103
42 43 42 42 39 39 41 43 44 41 35 34 39 45 52 66 68 72 75 78 78 83 85 79 83 78 74 73 54 67 70 75 77 71 69 65 57 59 62 67 91 93 107
44 44 44 46 47 48 47 46 42 42 32 29 32 31 46 58 70 74 74 76 77 80 78 80 80 88 85 73 65 74 70 64 68 68 66 61 57 59 57 38 56 93 92
50 50 53 58 58 53 55 55 48 40 33 26 26 31 28 39 56 63 69 74 71 74 76 80 81 88 79 63 88 94 73 66 68 66 69 64 57 65 65 63 55 72 72
59 63 64 67 72 70 69 63 56 48 42 34 26 23 28 41 50 53 68 73 64 66 66 82 70 75 67 72 85 84 75 66 68 66 64 73 69 68 64 70 66 78 79
59 65 71 74 78 80 72 67 63 55 50 47 44 36 32 32 42 58 67 70 75 66 74 74 70 76 78 91 88 85 81 73 70 68 67 62 74 78 76 73 73 72 88
59 63 70 71 73 75 73 72 70 68 64 62 61 58 51 44 35 41 47 64 82 79 84 75 76 76 76 73 71 85 86 80 76 74 69 63 67 70 79 81 82 76 74
58 66 69 68 69 71 68 68 68 72 74 76 75 72 69 63 52 39 24 24 45 60 56 65 60 65 65 66 73 83 90 90 72 77 71 67 69 71 69 69 72 72 74
58 65 68 69 72 72 71 70 68 73 77 79 80 82 81 74 65 49 35 24 17 16 27 45 79 70 74 72 84 86 91 78 84 82 72 66 67 66 65 71 73 72 67
59 61 63 66 67 71 73 76 76 75 77 76 76 80 82 80 73 63 56 44 40 32 28 14 20 40 51 70 95 97 89 84 84 72 72 69 68 66 65 73 71 76 72
Wind_Direction_500mb
248 245 245 244 242 242 241 242 245 244 246 247 247 245 246 248 248 245 244 243 241 236 235 232 238 235 234 233 238 239 235 234 234 232 231 227 219 222 218 214 210 211 215
246 248 250 251 251 250 249 250 249 250 250 250 250 249 249 251 252 252 250 246 246 242 239 234 233 237 237 237 242 242 242 242 240 236 232 227 216 222 222 217 214 212 216
252 248 248 251 255 257 256 253 254 252 251 252 256 256 253 253 254 254 252 251 250 248 243 238 236 234 238 239 239 237 239 242 245 244 235 225 220 222 222 220 216 215 216
253 258 257 257 259 256 253 253 253 252 252 248 262 262 260 257 256 255 255 254 253 251 248 244 242 241 241 236 239 239 241 241 244 247 233 228 218 218 223 222 218 218 217
260 259 255 251 248 252 256 254 250 252 248 239 236 263 268 268 264 261 255 254 251 251 252 252 251 249 248 241 243 245 248 244 241 240 239 228 224 221 221 221 221 219 219
264 267 265 263 266 267 262 257 252 248 245 238 247 234 258 265 271 270 264 256 252 250 251 251 249 251 249 248 249 250 254 247 243 240 240 236 237 223 222 221 223 220 221
270 269 268 268 266 266 268 269 262 260 257 252 249 235 244 251 258 267 262 263 251 245 246 258 261 257 252 251 248 250 252 250 247 243 241 238 238 227 217 222 223 221 222
277 277 275 271 269 267 264 263 265 267 266 261 240 236 244 251 238 254 256 235 254 250 247 242 251 253 252 250 249 249 251 249 246 245 244 240 243 225 229 224 222 222 223
285 283 282 279 274 270 268 261 256 253 255 263 256 241 220 218 228 242 246 245 241 239 241 239 244 250 248 249 247 248 244 247 248 243 242 235 242 239 222 218 221 223 224
292 292 288 285 281 277 273 268 259 252 245 244 253 253 245 242 221 224 233 236 241 239 239 236 235 242 244 247 247 245 241 247 249 243 240 238 235 235 224 224 221 224 224
297 297 297 290 287 284 281 275 267 258 249 245 241 247 248 249 245 238 235 232 233 233 239 240 230 236 240 244 244 245 240 242 245 243 240 238 238 237 226 227 224 222 225
307 302 304 304 297 291 289 286 277 271 260 247 241 245 242 238 238 233 233 239 244 245 235 244 233 237 239 243 244 246 243 243 239 241 240 237 235 234 230 226 227 226 223
320 311 307 307 302 301 293 289 287 280 279 264 251 240 246 245 244 245 241 237 237 242 244 241 230 242 243 243 246 245 247 245 237 238 240 238 237 236 231 230 227 229 227
328 324 315 310 304 303 301 298 289 281 279 275 269 248 246 248 249 250 246 244 235 235 235 233 240 248 254 251 249 245 245 247 240 238 239 239 239 237 231 231 232 230 232
322 319 317 318 314 309 302 293 294 288 278 274 277 265 241 249 250 251 254 249 243 233 239 247 249 249 253 248 254 245 244 245 246 239 237 236 240 242 234 232 237 239 236
331 327 324 324 323 318 307 302 289 285 280 274 275 268 251 247 248 251 252 250 248 248 243 248 256 257 249 244 254 248 241 242 246 239 236 237 243 247 237 239 234 237 225
347 341 341 337 334 329 319 315 311 295 283 280 275 271 254 249 252 251 255 255 254 249 238 243 249 251 241 246 253 252 242 241 244 236 232 237 249 246 242 251 229 221 218
10 5 359 356 351 342 339 331 328 321 293 285 274 268 264 247 252 252 252 257 253 249 247 242 242 240 245 250 246 253 248 244 238 233 230 234 239 238 239 238 223 230 223
27 24 18 14 10 3 355 347 339 341 330 294 285 274 268 263 258 257 254 251 250 256 251 247 247 248 241 239 238 256 245 241 232 233 229 233 235 236 238 232 219 230 211
41 42 40 37 29 21 13 7 0 355 348 328 304 274 267 259 251 256 261 263 260 256 257 251 238 243 245 238 230 246 234 231 229 229 229 229 233 229 235 226 222 214 212
48 47 47 47 42 35 26 17 15 9 359 354 343 314 289 270 263 254 249 260 263 259 259 250 233 229 228 221 235 233 229 232 231 232 231 228 228 227 227 222 225 223 221
44 47 47 45 45 42 37 33 28 25 20 15 8 355 338 306 278 269 260 257 253 261 250 226 223 220 219 226 234 235 224 222 222 228 227 231 231 228 228 231 236 227 227
40 44 44 43 45 44 39 39 40 36 33 33 29 23 16 8 338 302 274 248 244 248 237 228 217 222 223 234 241 231 229 226 230 234 229 235 238 235 233 237 240 239 237
38 42 43 41 40 42 39 39 37 40 40 37 34 31 24 23 17 6 338 268 225 227 231 225 230 233 240 247 253 249 243 230 230 232 229 230 231 234 234 234 236 239 242
38 39 40 38 37 36 34 33 32 35 35 35 34 31 29 24 19 25 29 22 351 215 247 252 245 242 245 244 232 237 229 226 226 221 221 226 233 238 242 243 241 246 246
41 39 39 38 37 35 31 28 28 30 30 28 30 29 30 28 22 21 26 28 21 14 1 326 265 241 233 223 211 214 225 224 219 217 219 226 231 237 241 245 244 247 250
Wind_Speed_850mb
48 49 54 56 59 61 62 60 59 59 59 58 56 53 51 48 47 47 47 47 46 45 45 44 41 41 37 37 38 42 45 48 47 50 49 49 53 52 51 49 47 42 37
46 48 51 54 57 60 60 61 64 63 63 62 62 60 57 54 53 51 51 51 52 51 51 49 47 47 45 44 42 44 47 48 48 52 56 54 57 56 55 54 51 45 41
53 54 54 57 58 58 55 60 66 64 65 61 64 64 62 61 60 58 56 56 56 55 55 56 54 52 51 49 46 45 46 50 52 51 57 57 58 60 60 59 55 49 43
53 63 60 66 66 68 63 66 65 66 65 55 59 64 65 63 66 66 63 62 62 60 56 58 58 54 52 48 46 45 46 49 53 52 56 57 64 66 66 63 60 54 46
46 50 63 62 49 44 48 70 70 71 72 68 56 58 64 63 65 62 69 69 65 60 54 51 54 56 55 52 49 47 47 50 53 56 60 61 66 69 70 67 65 59 51
44 47 45 43 45 52 62 58 65 72 75 61 79 103 76 67 60 67 65 69 62 57 55 53 52 58 59 58 56 52 50 51 54 57 61 68 73 77 73 71 70 64 56
44 48 54 54 52 50 48 46 52 59 64 79 78 72 89 101 81 67 58 62 69 59 53 55 57 58 62 64 62 60 57 55 55 57 60 69 72 75 76 72 73 69 61
39 43 47 53 59 59 55 51 50 44 48 44 73 75 62 86 115 110 91 77 69 58 59 66 64 62 67 69 69 68 64 58 56 58 59 66 65 82 85 81 79 74 66
33 39 45 48 52 57 59 57 56 53 53 52 50 49 19 28 52 84 92 115 91 78 84 87 61 63 69 74 75 74 68 65 59 62 59 62 60 72 90 85 83 78 71
30 32 38 41 46 50 52 55 55 59 57 60 61 64 66 54 29 27 61 88 110 109 88 94 89 76 72 74 83 78 68 65 65 64 65 66 67 70 92 87 84 81 76
29 31 30 34 37 39 42 48 51 54 61 65 66 68 69 70 75 62 47 61 77 88 88 96 98 80 86 83 84 81 74 70 69 68 70 72 70 72 98 94 91 86 82
29 30 30 28 29 32 34 37 41 47 53 65 73 68 74 69 72 72 71 63 72 73 95 85 104 103 90 91 92 84 74 71 72 73 72 73 77 75 94 98 93 91 89
34 32 32 29 29 30 33 34 39 46 47 55 70 75 81 82 80 75 85 80 74 82 81 89 106 110 91 95 102 94 81 76 75 76 76 75 79 83 85 96 97 97 96
38 36 36 34 33 32 34 36 42 48 50 51 57 71 78 82 84 84 89 83 74 79 81 94 100 106 98 84 104 100 89 80 78 78 78 76 78 84 90 97 96 100 109
39 37 37 36 34 33 32 38 41 41 46 49 54 53 72 79 88 87 89 92 90 64 78 102 102 108 100 85 83 100 91 85 77 80 79 79 77 78 97 110 112 116 116
37 36 36 37 37 35 36 36 41 40 44 46 50 51 61 76 79 82 86 91 93 97 80 72 85 91 83 84 75 80 87 84 77 78 79 76 77 79 79 99 112 120 119
37 38 40 39 39 40 37 36 37 37 42 40 45 47 57 67 74 78 75 78 87 92 87 77 73 61 64 62 62 63 76 83 79 76 73 70 64 60 79 76 96 115 103
42 43 42 42 39 39 41 43 44 41 35 34 39 45 52 66 68 72 75 78 78 83 85 79 83 78 74 73 54 67 70 75 77 71 69 65 57 59 62 67 91 93 107
44 44 44 46 47 48 47 46 42 42 32 29 32 31 46 58 70 74 74 76 77 80 78 80 80 88 85 73 65 74 70 64 68 68 66 61 57 59 57 38 56 93 92
50 50 53 58 58 53 55 55 48 40 33 26 26 31 28 39 56 63 69 74 71 74 76 80 81 88 79 63 88 94 73 66 68 66 69 64 57 65 65 63 55 72 72
59 63 64 67 72 70 69 63 56 48 42 34 26 23 28 41 50 53 68 73 64 66 66 82 70 75 67 72 85 84 75 66 68 66 64 73 69 68 64 70 66 78 79
59 65 71 74 78 80 72 67 63 55 50 47 44 36 32 32 42 58 67 70 75 66 74 74 70 76 78 91 88 85 81 73 70 68 67 62 74 78 76 73 73 72 88
59 63 70 71 73 75 73 72 70 68 64 62 61 58 51 44 35 41 47 64 82 79 84 75 76 76 76 73 71 85 86 80 76 74 69 63 67 70 79 81 82 76 74
58 66 69 68 69 71 68 68 68 72 74 76 75 72 69 63 52 39 24 24 45 60 56 65 60 65 65 66 73 83 90 90 72 77 71 67 69 71 69 69 72 72 74
58 65 68 69 72 72 71 70 68 73 77 79 80 82 81 74 65 49 35 24 17 16 27 45 79 70 74 72 84 86 91 78 84 82 72 66 67 66 65 71 73 72 67
59 61 63 66 67 71 73 76 76 75 77 76 76 80 82 80 73 63 56 44 40 32 28 14 20 40 51 70 95 97 89 84 84 72 72 69 68 66 65 73 71 76 72
Wind_Direction_850mb
248 245 245 244 242 242 241 242 245 244 246 247 247 245 246 248 248 245 244 243 241 236 235 232 238 235 234 233 238 239 235 234 234 232 231 227 219 222 218 214 210 211 215
246 248 250 251 251 250 249 250 249 250 250 250 250 249 249 251 252 252 250 246 246 242 239 234 233 237 237 237 242 242 242 242 240 236 232 227 216 222 222 217 214 212 216
252 248 248 251 255 257 256 253 254 252 251 252 256 256 253 253 254 254 252 251 250 248 243 238 236 234 238 239 239 237 239 242 245 244 235 225 220 222 222 220 216 215 216
253 258 257 257 259 256 253 253 253 252 252 248 262 262 260 257 256 255 255 254 253 251 248 244 242 241 241 236 239 239 241 241 244 247 233 228 218 218 223 222 218 218 217
260 259 255 251 248 252 256 254 250 252 248 239 236 263 268 268 264 261 255 254 251 251 252 252 251 249 248 241 243 245 248 244 241 240 239 228 224 221 221 221 221 219 219
264 267 265 263 266 267 262 257 252 248 245 238 247 234 258 265 271 270 264 256 252 250 251 251 249 251 249 248 249 250 254 247 243 240 240 236 237 223 222 221 223 220 221
270 269 268 268 266 266 268 269 262 260 257 252 249 235 244 251 258 267 262 263 251 245 246 258 261 257 252 251 248 250 252 250 247 243 241 238 238 227 217 222 223 221 222
277 277 275 271 269 267 264 263 265 267 266 261 240 236 244 251 238 254 256 235 254 250 247 242 251 253 252 250 249 249 251 249 246 245 244 240 243 225 229 224 222 222 223
285 283 282 279 274 270 268 261 256 253 255 263 256 241 220 218 228 242 246 245 241 239 241 239 244 250 248 249 247 248 244 247 248 243 242 235 242 239 222 218 221 223 224
292 292 288 285 281 277 273 268 259 252 245 244 253 253 245 242 221 224 233 236 241 239 239 236 235 242 244 247 247 245 241 247 249 243 240 238 235 235 224 224 221 224 224
297 297 297 290 287 284 281 275 267 258 249 245 241 247 248 249 245 238 235 232 233 233 239 240 230 236 240 244 244 245 240 242 245 243 240 238 238 237 226 227 224 222 225
307 302 304 304 297 291 289 286 277 271 260 247 241 245 242 238 238 233 233 239 244 245 235 244 233 237 239 243 244 246 243 243 239 241 240 237 235 234 230 226 227 226 223
320 311 307 307 302 301 293 289 287 280 279 264 251 240 246 245 244 245 241 237 237 242 244 241 230 242 243 243 246 245 247 245 237 238 240 238 237 236 231 230 227 229 227
328 324 315 310 304 303 301 298 289 281 279 275 269 248 246 248 249 250 246 244 235 235 235 233 240 248 254 251 249 245 245 247 240 238 239 239 239 237 231 231 232 230 232
322 319 317 318 314 309 302 293 294 288 278 274 277 265 241 249 250 251 254 249 243 233 239 247 249 249 253 248 254 245 244 245 246 239 237 236 240 242 234 232 237 239 236
331 327 324 324 323 318 307 302 289 285 280 274 275 268 251 247 248 251 252 250 248 248 243 248 256 257 249 244 254 248 241 242 246 239 236 237 243 247 237 239 234 237 225
347 341 341 337 334 329 319 315 311 295 283 280 275 271 254 249 252 251 255 255 254 249 238 243 249 251 241 246 253 252 242 241 244 236 232 237 249 246 242 251 229 221 218
10 5 359 356 351 342 339 331 328 321 293 285 274 268 264 247 252 252 252 257 253 249 247 242 242 240 245 250 246 253 248 244 238 233 230 234 239 238 239 238 223 230 223
27 24 18 14 10 3 355 347 339 341 330 294 285 274 268 263 258 257 254 251 250 256 251 247 247 248 241 239 238 256 245 241 232 233 229 233 235 236 238 232 219 230 211
41 42 40 37 29 21 13 7 0 355 348 328 304 274 267 259 251 256 261 263 260 256 257 251 238 243 245 238 230 246 234 231 229 229 229 229 233 229 235 226 222 214 212
48 47 47 47 42 35 26 17 15 9 359 354 343 314 289 270 263 254 249 260 263 259 259 250 233 229 228 221 235 233 229 232 231 232 231 228 228 227 227 222 225 223 221
44 47 47 45 45 42 37 33 28 25 20 15 8 355 338 306 278 269 260 257 253 261 250 226 223 220 219 226 234 235 224 222 222 228 227 231 231 228 228 231 236 227 227
40 44 44 43 45 44 39 39 40 36 33 33 29 23 16 8 338 302 274 248 244 248 237 228 217 222 223 234 241 231 229 226 230 234 229 235 238 235 233 237 240 239 237
38 42 43 41 40 42 39 39 37 40 40 37 34 31 24 23 17 6 338 268 225 227 231 225 230 233 240 247 253 249 243 230 230 232 229 230 231 234 234 234 236 239 242
38 39 40 38 37 36 34 33 32 35 35 35 34 31 29 24 19 25 29 22 351 215 247 252 245 242 245 244 232 237 229 226 226 221 221 226 233 238 242 243 241 246 246
41 39 39 38 37 35 31 28 28 30 30 28 30 29 30 28 22 21 26 28 21 14 1 326 265 241 233 223 211 214 225 224 219 217 219 226 231 237 241 245 244 247 250